Mountain Home, AR

10:16 AM CDT on October 16, 2019 (GMT -0500)
Baxter County Regional

Weather History for KBPK - August, 2019

Change the Weather History Date:

Sunday, August 4, 2019

  Actual Average (WUND) Record (WUND)
Temperature  
Mean Temperature 78 °F -  
Max Temperature 90 °F - - (-1)
Min Temperature 68 °F - - (-1)
Cooling Degree Days 14    
Growing Degree Days 28 (Base 50)    
Moisture  
Dew Point 70 °F    
Average Humidity 75    
Maximum Humidity 100    
Minimum Humidity 50    
Precipitation  
Precipitation 0.00 in - - ()
Sea Level Pressure  
Sea Level Pressure 29.98 in    
Wind  
Wind Speed 2 mph (ESE)    
Max Wind Speed 9 mph    
Max Gust Speed -    
Visibility 9 miles    
Events      
Averages and records for this station are not official NWS values.
T = Trace of Precipitation, MM = Missing Value Source: NWS Daily Summary

Daily Weather History Graph

Daily Weather History Graph

Search for Another Location

Airport or City:

Astronomy

Aug. 04, 2019 Rise Set
Actual Time 6:18 AM CDT 8:12 PM CDT
Civil Twilight 5:50 AM CDT 8:40 PM CDT
Nautical Twilight 5:16 AM CDT 9:15 PM CDT
Astronomical Twilight 4:39 AM CDT 9:51 PM CDT
Moon 10:18 AM CDT (8/4) 10:59 PM CDT (8/4)
Length of Visible Light 14h 50m
Length of Day
13h 54m
Waxing Crescent, 18% of the Moon is Illuminated
Aug 4
Waxing Crescent
Aug 7
First Quarter
Aug 15
Full
Aug 23
Last Quarter
Aug 30
New

Hourly Weather History & Observations

Time (CDT) Temp. Heat Index Dew Point Humidity Pressure Visibility Wind Dir Wind Speed Gust Speed Precip Events Conditions
12:53 AM 73.0 °F - 69.1 °F 87% 29.98 in 10.0 mi Calm Calm - N/A   Scattered Clouds
1:53 AM 73.0 °F - 69.1 °F 87% 29.97 in 10.0 mi Variable 3.5 mph - N/A   Scattered Clouds
2:53 AM 71.1 °F - 69.1 °F 93% 29.98 in 10.0 mi Calm Calm - N/A   Scattered Clouds
4:53 AM 68.0 °F - 68.0 °F 100% 29.98 in 6.0 mi Calm Calm - N/A   Clear
5:53 AM 68.0 °F - 68.0 °F 100% 29.99 in 6.0 mi Calm Calm - N/A   Clear
6:53 AM 68.0 °F - 68.0 °F 100% 30.00 in 5.0 mi Calm Calm - N/A   Clear
7:53 AM 72.0 °F - 70.0 °F 93% 30.00 in 8.0 mi ENE 3.5 mph - N/A   Clear
8:53 AM 75.0 °F - 71.1 °F 87% 30.01 in 10.0 mi East 3.5 mph - N/A   Clear
9:53 AM 80.1 °F 84.2 °F 73.0 °F 79% 30.01 in 10.0 mi Calm Calm - N/A   Clear
10:53 AM 82.9 °F 88.0 °F 72.0 °F 69% 30.01 in 10.0 mi Variable 3.5 mph - N/A   Clear
11:27 AM 82.9 °F 88.0 °F 72.0 °F 69% 30.04 in 10.0 mi Variable 3.5 mph - N/A   Mostly Cloudy
11:53 AM 82.0 °F 86.7 °F 72.0 °F 71% 30.00 in 10.0 mi Calm Calm - N/A   Mostly Cloudy
12:53 PM 87.1 °F 92.8 °F 71.1 °F 59% 29.99 in 10.0 mi Variable 4.6 mph - N/A   Clear
1:53 PM 86.0 °F 90.7 °F 70.0 °F 59% 29.98 in 10.0 mi East 3.5 mph - N/A   Scattered Clouds
2:53 PM 89.1 °F 92.9 °F 68.0 °F 50% 29.96 in 10.0 mi SSW 4.6 mph - N/A   Partly Cloudy
3:53 PM 89.1 °F 93.7 °F 69.1 °F 52% 29.94 in 10.0 mi Variable 4.6 mph - N/A   Partly Cloudy
4:53 PM 89.1 °F 92.9 °F 68.0 °F 50% 29.93 in 10.0 mi Variable 3.5 mph - N/A   Partly Cloudy
5:53 PM 89.1 °F 93.7 °F 69.1 °F 52% 29.93 in 10.0 mi East 3.5 mph - N/A   Clear
6:53 PM 86.0 °F 90.7 °F 70.0 °F 59% 29.94 in 10.0 mi East 3.5 mph - N/A   Clear
7:53 PM 82.0 °F 85.5 °F 69.1 °F 65% 29.94 in 10.0 mi Calm Calm - N/A   Clear
8:53 PM 78.1 °F - 70.0 °F 76% 29.94 in 10.0 mi Calm Calm - N/A   Clear
10:53 PM 78.1 °F - 71.1 °F 79% 29.98 in 10.0 mi ESE 9.2 mph - N/A   Partly Cloudy
11:53 PM 75.0 °F - 72.0 °F 90% 29.99 in 10.0 mi SSW 4.6 mph - N/A   Mostly Cloudy